Simultaneous Nadir Overpasses (SNOs) Predictions

Prediction of SNOs between METOP-B and NOAA-19 Satellite Orbit:

Table of predicted SNOs for the next 14.0 days since TLE Epoch: 7/31/2021
Index Date (METOP-B) Time (METOP-B) Lat,Lon (METOP-B) SZA (METOP-B ) Date (NOAA-19) Time (NOAA-19) Lat,Lon (NOAA-19) SZA (NOAA-19 ) Distance(km) Time Diff (sec)
1 08/05/2021 21:45:17 -80.59, 63.26 115.00 08/05/2021 21:44:15 -80.58, 63.42 115.02 3.15 62
2 08/05/2021 22:35:58 80.58,-129.50 65.00 08/05/2021 22:35:10 80.58,-129.38 64.99 2.24 48
3 08/05/2021 23:26:39 -80.58, 37.78 115.00 08/05/2021 23:26:16 -80.59, 37.66 115.01 2.33 23
4 08/06/2021 00:17:20 80.57,-154.98 65.00 08/06/2021 00:17:11 80.59,-155.13 65.00 3.38 9
5 08/06/2021 01:08:01 -80.57, 12.31 115.00 08/06/2021 01:08:16 -80.58, 12.26 114.99 1.66 15
6 08/06/2021 01:58:41 80.59, 179.88 65.05 08/06/2021 01:59:10 80.57, 179.82 65.04 2.07 29
7 08/06/2021 02:49:23 -80.56, -13.16 115.00 08/06/2021 02:50:16 -80.58, -13.14 114.97 2.07 53



Historial Predications of SNOs between METOP-B and NOAA-19
